Guam Agana, GU

12:02 PM ChST on October 15, 2019 (GMT +1000)
Guam International

Weather History for PGUM - August, 2019

Change the Weather History Date:

Friday, August 2, 2019

  Actual Average Record
Temperature  
Mean Temperature 80 °F -  
Max Temperature 84 °F 85 °F 90 °F (2013)
Min Temperature 77 °F 75 °F 73 °F (1996)
Cooling Degree Days 16    
Growing Degree Days 30 (Base 50)    
Moisture  
Dew Point 76 °F    
Average Humidity 87    
Maximum Humidity 90    
Minimum Humidity 78    
Precipitation  
Precipitation 1.93 in - - ()
Sea Level Pressure  
Sea Level Pressure 29.72 in    
Wind  
Wind Speed 10 mph (West)    
Max Wind Speed 18 mph    
Max Gust Speed 26 mph    
Visibility 7 miles    
Events Fog , Rain    
Averages and records for this station are not official NWS values.
T = Trace of Precipitation, MM = Missing Value Source: NWS Daily Summary

Daily Weather History Graph

Daily Weather History Graph

Search for Another Location

Airport or City:

Astronomy

Aug. 02, 2019 Rise Set
Actual Time 6:05 AM ChST 6:48 PM ChST
Civil Twilight 5:43 AM ChST 7:10 PM ChST
Nautical Twilight 5:16 AM ChST 7:37 PM ChST
Astronomical Twilight 4:49 AM ChST 8:04 PM ChST
Moon 6:55 AM ChST (8/2) 7:57 PM ChST (8/2)
Length of Visible Light 13h 27m
Length of Day
12h 42m
New Moon, 1% of the Moon is Illuminated
Aug 2
New Moon
Aug 8
First Quarter
Aug 15
Full
Aug 24
Last Quarter
Aug 30
New

Hourly Weather History & Observations

Time (ChST) Temp. Heat Index Dew Point Humidity Pressure Visibility Wind Dir Wind Speed Gust Speed Precip Events Conditions
12:54 AM 81.0 °F 87.9 °F 77.0 °F 88% 29.72 in 10.0 mi West 6.9 mph - N/A   Overcast
1:18 AM 80.1 °F 85.8 °F 77.0 °F 90% 29.74 in 2.5 mi WNW 17.3 mph 26.5 mph 0.02 in Rain Heavy Rain
1:27 AM 79.0 °F - 75.9 °F 90% 29.74 in 3.0 mi WNW 15.0 mph - 0.07 in Rain Rain
1:32 AM 79.0 °F - 75.9 °F 90% 29.74 in 6.0 mi WNW 16.1 mph - 0.08 in Rain Light Rain
1:50 AM 78.8 °F - 73.4 °F 83% 29.75 in 10.0 mi West 15.0 mph - 0.08 in   Overcast
1:54 AM 79.0 °F - 73.9 °F 84% 29.72 in 10.0 mi West 12.7 mph - 0.08 in   Overcast
2:12 AM 79.0 °F - 75.9 °F 90% 29.74 in 10.0 mi West 11.5 mph - N/A   Overcast
2:22 AM 78.1 °F - 75.0 °F 90% 29.73 in 10.0 mi West 9.2 mph - N/A   Overcast
2:54 AM 78.1 °F - 75.0 °F 90% 29.70 in 10.0 mi West 6.9 mph - N/A   Overcast
3:16 AM 78.1 °F - 75.0 °F 90% 29.72 in 10.0 mi West 10.4 mph - N/A   Overcast
3:44 AM 78.1 °F - 73.9 °F 87% 29.72 in 10.0 mi WSW 11.5 mph - N/A   Overcast
3:54 AM 78.1 °F - 73.9 °F 87% 29.69 in 10.0 mi WSW 8.1 mph - N/A   Overcast
4:46 AM 79.0 °F - 75.9 °F 90% 29.72 in 10.0 mi WSW 9.2 mph - N/A   Mostly Cloudy
4:54 AM 79.0 °F - 75.9 °F 90% 29.70 in 10.0 mi WSW 8.1 mph - N/A   Mostly Cloudy
5:02 AM 79.0 °F - 75.9 °F 90% 29.72 in 5.0 mi West 8.1 mph - 0.00 in Rain Light Rain
5:10 AM 80.1 °F 85.4 °F 75.9 °F 87% 29.72 in 6.0 mi West 12.7 mph 18.4 mph 0.00 in Rain Light Rain
5:36 AM 79.0 °F - 75.0 °F 88% 29.73 in 8.0 mi WNW 11.5 mph - 0.01 in   Overcast
5:54 AM 79.0 °F - 75.9 °F 90% 29.70 in 5.0 mi WNW 10.4 mph - 0.01 in Rain Light Rain
6:21 AM 78.1 °F - 75.0 °F 90% 29.74 in 2.5 mi WNW 18.4 mph 24.2 mph 0.04 in Rain Heavy Rain
6:34 AM 78.1 °F - 75.0 °F 90% 29.75 in 1.8 mi WSW 11.5 mph - 0.12 in Rain Heavy Rain
6:43 AM 78.1 °F - 73.9 °F 87% 29.75 in 2.5 mi WSW 18.4 mph - 0.18 in Rain Rain
6:48 AM 77.0 °F - 73.4 °F 89% 29.75 in 3.0 mi WSW 13.8 mph - 0.21 in Rain Heavy Rain
6:54 AM 78.1 °F - 75.0 °F 90% 29.75 in 2.5 mi West 12.7 mph - 0.23 in Rain Heavy Rain
6:59 AM 78.1 °F - 75.0 °F 90% 29.78 in 0.8 mi NW 12.7 mph 23.0 mph 0.12 in Rain Heavy Rain
7:12 AM 77.0 °F - 73.0 °F 88% 29.77 in 0.5 mi NNW 11.5 mph - 0.95 in Fog , Rain Heavy Rain
7:18 AM 77.0 °F - 73.0 °F 88% 29.77 in 2.0 mi NNW 11.5 mph - 0.95 in Fog , Rain Heavy Rain
7:31 AM 77.0 °F - 73.0 °F 88% 29.77 in 1.2 mi North 9.2 mph - 1.42 in Rain Heavy Rain
7:36 AM 77.0 °F - 73.9 °F 90% 29.76 in 2.0 mi North 6.9 mph - 1.47 in Rain Heavy Rain
7:54 AM 78.1 °F - 73.9 °F 87% 29.73 in 5.0 mi NNW 9.2 mph - 1.52 in Rain Rain
8:25 AM 79.0 °F - 75.9 °F 90% 29.74 in 4.0 mi NNW 5.8 mph - 0.07 in Rain Light Rain
8:28 AM 80.1 °F 85.4 °F 75.9 °F 87% 29.74 in 5.0 mi NNW 4.6 mph - 0.07 in Rain Light Rain
8:54 AM 81.0 °F 87.9 °F 77.0 °F 88% 29.73 in 5.0 mi NW 5.8 mph - 0.11 in Rain Light Rain
9:15 AM 81.0 °F 87.9 °F 77.0 °F 88% 29.76 in 2.5 mi WSW 9.2 mph - 0.02 in Rain Rain
9:22 AM 80.1 °F 85.8 °F 77.0 °F 90% 29.76 in 2.5 mi WSW 10.4 mph - 0.06 in Rain Light Rain
9:29 AM 80.1 °F 85.4 °F 75.9 °F 87% 29.76 in 10.0 mi West 12.7 mph - 0.06 in Rain Light Rain
9:36 AM 80.1 °F 85.4 °F 75.9 °F 87% 29.76 in 10.0 mi West 10.4 mph - 0.06 in   Overcast
9:54 AM 81.0 °F 87.3 °F 75.9 °F 85% 29.74 in 10.0 mi WSW 8.1 mph - 0.06 in   Mostly Cloudy
10:54 AM 81.0 °F 86.7 °F 75.0 °F 82% 29.73 in 10.0 mi SSW 5.8 mph - N/A   Scattered Clouds
11:54 AM 81.0 °F 87.3 °F 75.9 °F 85% 29.69 in 10.0 mi WSW 6.9 mph - N/A   Clear
12:54 PM 81.0 °F 87.9 °F 77.0 °F 88% 29.64 in 10.0 mi West 8.1 mph - N/A   Clear
1:54 PM 82.9 °F 90.8 °F 75.9 °F 79% 29.63 in 10.0 mi WNW 10.4 mph - N/A   Partly Cloudy
2:30 PM 84.0 °F 94.8 °F 78.1 °F 82% 29.67 in 10.0 mi West 9.2 mph - 0.00 in Rain Light Rain
2:54 PM 84.0 °F 94.8 °F 78.1 °F 82% 29.66 in 10.0 mi WSW 10.4 mph - 0.00 in   Mostly Cloudy
3:54 PM 84.0 °F 94.8 °F 78.1 °F 82% 29.66 in 10.0 mi West 8.1 mph - 0.01 in   Mostly Cloudy
4:33 PM 84.0 °F 96.0 °F 79.0 °F 85% 29.68 in 10.0 mi WSW 4.6 mph - 0.00 in   Overcast
4:44 PM 82.9 °F 92.8 °F 78.1 °F 85% 29.69 in 10.0 mi West 8.1 mph - 0.00 in   Mostly Cloudy
4:54 PM 84.0 °F 94.8 °F 78.1 °F 82% 29.67 in 10.0 mi West 9.2 mph - 0.00 in   Mostly Cloudy
5:06 PM 82.9 °F 92.8 °F 78.1 °F 85% 29.69 in 10.0 mi West 8.1 mph - N/A   Mostly Cloudy
5:54 PM 80.1 °F 85.1 °F 75.0 °F 85% 29.67 in 6.0 mi West 13.8 mph - 0.00 in Rain Light Rain
6:54 PM 80.1 °F 85.1 °F 75.0 °F 85% 29.68 in 10.0 mi SSW 3.5 mph - 0.01 in   Partly Cloudy
7:54 PM 79.0 °F - 75.0 °F 88% 29.70 in 10.0 mi South 5.8 mph - N/A   Scattered Clouds
8:54 PM 79.0 °F - 73.9 °F 84% 29.72 in 10.0 mi Calm Calm - 0.03 in   Overcast
9:54 PM 79.0 °F - 73.9 °F 84% 29.74 in 10.0 mi Calm Calm - N/A   Mostly Cloudy
10:54 PM 79.0 °F - 75.0 °F 88% 29.74 in 9.0 mi NW 12.7 mph - N/A   Mostly Cloudy
11:02 PM 79.0 °F - 75.0 °F 88% 29.76 in 6.0 mi NW 11.5 mph - 0.00 in Rain Light Rain
11:32 PM 79.0 °F - 75.0 °F 88% 29.74 in 10.0 mi NW 8.1 mph - 0.00 in   Mostly Cloudy
11:54 PM 79.0 °F - 73.9 °F 84% 29.72 in 10.0 mi WNW 6.9 mph - 0.00 in   Mostly Cloudy